• In Uzbekistan
  • List of Countries
  • For 7 days
  • Water Temperature
  • Satellite Maps
  • Weather Map
  • Weather Widgets
  • user-avatar
    Login

    Hourly Weather Linz

    Today, 26 May, Friday

    Time Temperature Precipitation Wind Pressure Humidity
    00:00 +10°C° 0 mm 1 mps 736 mmHg 91%
    01:00 +11°C° 0 mm 1 mps 736 mmHg 91%
    02:00 +10°C° 0 mm 1 mps 736 mmHg 92%
    03:00 +10°C° 0 mm 1 mps 736 mmHg 92%
    04:00 +10°C° 0 mm 1 mps 736 mmHg 93%
    05:00 +12°C° 0 mm 1 mps 736 mmHg 89%
    06:00 +13°C° 0 mm 1 mps 736 mmHg 85%
    07:00 +15°C° 0 mm 1 mps 736 mmHg 81%
    08:00 +18°C° 0 mm 1 mps 736 mmHg 75%
    09:00 +19°C° 0 mm 1 mps 736 mmHg 69%
    10:00 +21°C° 0 mm 1 mps 736 mmHg 63%
    11:00 +20°C° 0 mm 2 mps 736 mmHg 61%
    12:00 +21°C° 0 mm 2 mps 736 mmHg 58%
    13:00 +23°C° 0 mm 2 mps 736 mmHg 56%
    14:00 +23°C° 0 mm 2 mps 736 mmHg 58%
    15:00 +23°C° 0 mm 2 mps 735 mmHg 59%
    16:00 +21°C° 0 mm 2 mps 735 mmHg 61%
    17:00 +20°C° 0 mm 2 mps 735 mmHg 69%
    18:00 +19°C° 0 mm 2 mps 735 mmHg 76%
    19:00 +18°C° 0 mm 1 mps 735 mmHg 84%
    20:00 +15°C° 0 mm 1 mps 736 mmHg 87%
    21:00 +13°C° 0 mm 1 mps 736 mmHg 90%
    22:00 +11°C° 0 mm 1 mps 736 mmHg 93%
    23:00 +11°C° 0 mm 1 mps 736 mmHg 94%

    Tomorrow, 27 May, Saturday

    Time Temperature Precipitation Wind Pressure Humidity
    00:00 +11°C° 0 mm 1 mps 736 mmHg 94%
    01:00 +10°C° 0 mm 1 mps 736 mmHg 95%
    02:00 +10°C° 0 mm 1 mps 736 mmHg 95%
    03:00 +10°C° 0 mm 1 mps 736 mmHg 95%
    04:00 +10°C° 0 mm 1 mps 736 mmHg 95%
    05:00 +12°C° 0 mm 1 mps 736 mmHg 90%
    06:00 +15°C° 0 mm 1 mps 737 mmHg 85%
    07:00 +18°C° 0 mm 1 mps 737 mmHg 80%
    08:00 +19°C° 0 mm 2 mps 737 mmHg 73%
    09:00 +20°C° 0 mm 2 mps 737 mmHg 67%
    10:00 +22°C° 0 mm 3 mps 737 mmHg 60%
    11:00 +22°C° 0 mm 3 mps 737 mmHg 58%
    12:00 +24°C° 0 mm 3 mps 737 mmHg 55%
    13:00 +25°C° 0 mm 3 mps 737 mmHg 53%
    14:00 +25°C° 0 mm 3 mps 737 mmHg 54%
    15:00 +24°C° 0 mm 3 mps 737 mmHg 55%
    16:00 +24°C° 0 mm 3 mps 737 mmHg 56%
    17:00 +22°C° 0 mm 3 mps 737 mmHg 64%
    18:00 +20°C° 0 mm 3 mps 737 mmHg 72%
    19:00 +19°C° 0 mm 2 mps 737 mmHg 79%
    20:00 +17°C° 0 mm 2 mps 737 mmHg 83%
    21:00 +15°C° 0 mm 2 mps 737 mmHg 87%
    22:00 +13°C° 0 mm 3 mps 738 mmHg 90%
    23:00 +13°C° 0 mm 2 mps 738 mmHg 91%

    Day after tomorrow, 28 May, Sunday

    Time Temperature Precipitation Wind Pressure Humidity
    00:00 +13°C° 0 mm 2 mps 738 mmHg 92%
    01:00 +12°C° 0 mm 2 mps 738 mmHg 92%
    02:00 +12°C° 0 mm 2 mps 738 mmHg 93%
    03:00 +12°C° 0 mm 2 mps 738 mmHg 93%
    04:00 +10°C° 0 mm 2 mps 738 mmHg 93%
    05:00 +13°C° 0 mm 1 mps 738 mmHg 88%
    06:00 +16°C° 0 mm 1 mps 738 mmHg 82%
    07:00 +19°C° 0 mm 1 mps 739 mmHg 77%
    08:00 +20°C° 0 mm 2 mps 739 mmHg 71%
    09:00 +21°C° 0 mm 2 mps 739 mmHg 65%
    10:00 +24°C° 0 mm 2 mps 739 mmHg 60%
    11:00 +25°C° 0 mm 2 mps 738 mmHg 57%
    12:00 +26°C° 0 mm 2 mps 738 mmHg 54%
    13:00 +27°C° 0 mm 3 mps 738 mmHg 51%
    14:00 +27°C° 0 mm 3 mps 738 mmHg 52%
    15:00 +28°C° 0 mm 3 mps 738 mmHg 53%
    16:00 +28°C° 0 mm 3 mps 737 mmHg 54%
    17:00 +26°C° 0 mm 2 mps 737 mmHg 62%
    18:00 +24°C° 0 mm 2 mps 737 mmHg 71%
    19:00 +21°C° 0 mm 2 mps 737 mmHg 79%
    20:00 +19°C° 0 mm 2 mps 737 mmHg 82%
    21:00 +18°C° 0 mm 1 mps 737 mmHg 85%
    22:00 +15°C° 0 mm 1 mps 737 mmHg 88%
    23:00 +15°C° 0 mm 1 mps 737 mmHg 88%

    29 May, Monday

    Time Temperature Precipitation Wind Pressure Humidity
    00:00 +14°C° 0 mm 1 mps 737 mmHg 88%
    01:00 +14°C° 0 mm 1 mps 736 mmHg 88%
    02:00 +13°C° 0 mm 1 mps 736 mmHg 89%
    03:00 +13°C° 0 mm 1 mps 736 mmHg 89%
    04:00 +13°C° 0 mm 1 mps 736 mmHg 89%
    05:00 +15°C° 0 mm 1 mps 736 mmHg 83%
    06:00 +19°C° 0 mm 1 mps 736 mmHg 77%
    07:00 +19°C° 0 mm 0 mps 736 mmHg 72%
    08:00 +23°C° 0 mm 1 mps 736 mmHg 67%
    09:00 +25°C° 0 mm 1 mps 736 mmHg 62%
    10:00 +27°C° 0 mm 1 mps 736 mmHg 57%
    11:00 +27°C° 0 mm 1 mps 736 mmHg 54%
    12:00 +28°C° 0 mm 1 mps 735 mmHg 51%
    13:00 +29°C° 0 mm 1 mps 735 mmHg 49%
    14:00 +29°C° 0 mm 1 mps 735 mmHg 49%
    15:00 +29°C° 0 mm 1 mps 735 mmHg 50%
    16:00 +29°C° 0 mm 1 mps 734 mmHg 50%
    17:00 +27°C° 0 mm 1 mps 734 mmHg 60%
    18:00 +25°C° 0 mm 1 mps 734 mmHg 69%
    19:00 +21°C° 0 mm 0 mps 734 mmHg 78%
    20:00 +18°C° 0 mm 0 mps 734 mmHg 82%
    21:00 +15°C° 0 mm 0 mps 734 mmHg 85%
    22:00 +13°C° 0 mm 0 mps 734 mmHg 89%
    23:00 +13°C° 0 mm 0 mps 733 mmHg 89%

    30 May, Tuesday

    Time Temperature Precipitation Wind Pressure Humidity
    00:00 +13°C° 0 mm 0 mps 733 mmHg 89%
    01:00 +14°C° 0 mm 1 mps 733 mmHg 89%
    02:00 +14°C° 0 mm 1 mps 733 mmHg 89%
    03:00 +14°C° 0 mm 1 mps 733 mmHg 90%
    04:00 +13°C° 0 mm 0 mps 733 mmHg 90%
    05:00 +16°C° 0 mm 0 mps 733 mmHg 83%
    06:00 +19°C° 0 mm 0 mps 734 mmHg 77%
    07:00 +22°C° 0 mm 0 mps 734 mmHg 70%
    08:00 +23°C° 0 mm 0 mps 734 mmHg 65%
    09:00 +24°C° 0 mm 0 mps 734 mmHg 60%
    10:00 +28°C° 0 mm 1 mps 734 mmHg 55%
    11:00 +29°C° 0 mm 1 mps 734 mmHg 52%
    12:00 +29°C° 0 mm 1 mps 734 mmHg 50%
    13:00 +30°C° 0 mm 1 mps 734 mmHg 47%
    14:00 +30°C° 0 mm 1 mps 734 mmHg 49%
    15:00 +30°C° 0 mm 1 mps 733 mmHg 50%
    16:00 +30°C° 0 mm 1 mps 733 mmHg 52%
    17:00 +28°C° 0 mm 1 mps 733 mmHg 61%
    18:00 +26°C° 0 mm 1 mps 733 mmHg 70%
    19:00 +22°C° 0 mm 0 mps 733 mmHg 79%
    20:00 +19°C° 0 mm 0 mps 733 mmHg 83%
    21:00 +17°C° 0 mm 0 mps 733 mmHg 86%
    22:00 +14°C° 0 mm 0 mps 733 mmHg 90%
    23:00 +14°C° 0 mm 0 mps 733 mmHg 90%

    31 May, Wednesday

    Time Temperature Precipitation Wind Pressure Humidity
    00:00 +14°C° 0 mm 0 mps 733 mmHg 90%
    01:00 +15°C° 0 mm 1 mps 733 mmHg 91%
    02:00 +15°C° 0 mm 1 mps 733 mmHg 91%
    03:00 +15°C° 0 mm 1 mps 733 mmHg 91%
    04:00 +16°C° 0 mm 1 mps 733 mmHg 91%
    05:00 +19°C° 0 mm 1 mps 734 mmHg 86%
    06:00 +21°C° 0 mm 1 mps 734 mmHg 81%
    07:00 +24°C° 0 mm 1 mps 735 mmHg 76%
    08:00 +25°C° 0.1 mm 1 mps 735 mmHg 71%
    09:00 +27°C° 0.1 mm 1 mps 735 mmHg 67%
    10:00 +28°C° 0.1 mm 1 mps 735 mmHg 62%
    11:00 +29°C° 0.1 mm 1 mps 735 mmHg 60%
    12:00 +29°C° 0.1 mm 1 mps 734 mmHg 57%
    13:00 +30°C° 0.1 mm 1 mps 734 mmHg 55%
    14:00 +30°C° 0.1 mm 1 mps 734 mmHg 56%
    15:00 +30°C° 0.1 mm 1 mps 734 mmHg 58%
    16:00 +30°C° 0.1 mm 1 mps 734 mmHg 59%
    17:00 +28°C° 0.3 mm 1 mps 734 mmHg 66%
    18:00 +26°C° 0.3 mm 1 mps 733 mmHg 73%
    19:00 +25°C° 0.3 mm 1 mps 733 mmHg 81%
    20:00 +21°C° 0.5 mm 0 mps 733 mmHg 84%
    21:00 +20°C° 0.5 mm 0 mps 733 mmHg 87%
    22:00 +18°C° 0.5 mm 0 mps 734 mmHg 90%
    23:00 +20°C° 0.2 mm 1 mps 734 mmHg 89%
    Show more